Wind_Speed
106 107 107 107 106 106 106 106 105 104 103 103 102 101 101 101 100 100 100 100 100 100 100 100 100 100 100 100 100 100 100 100 99 99 99 99 99 98 98 97 96 96 95 94 93 92 90 90 89 88 87 87 86 85 84 84 83 82 81 80 79 78 78 77 76 75 74 74 73 72 71 70 69 68 67 66 65 64 64 64 63 64 64 63 63 63
107 107 107 107 107 106 106 105 104 103 103 102 101 100 100 99 99 99 99 98 98 98 99 99 99 99 99 99 99 99 98 98 98 97 97 96 95 94 93 92 92 91 90 89 88 87 86 85 84 83 82 82 81 80 80 79 78 78 77 76 75 74 74 73 72 71 70 69 69 68 67 66 65 65 64 63 63 63 63 63 63 63 63 62 62 62
106 106 106 105 105 104 104 103 102 101 101 100 99 99 98 97 97 97 97 97 97 97 97 96 97 97 96 96 96 96 95 94 94 93 92 91 90 88 87 86 85 84 83 82 81 80 80 79 78 77 77 76 76 75 75 74 74 73 72 72 71 70 69 69 68 67 66 66 65 65 64 64 63 63 63 63 62 62 62 62 62 62 62 61 61 61
103 103 103 103 102 101 101 100 99 99 98 97 97 96 96 96 95 95 95 95 94 94 94 94 94 93 93 92 92 91 90 89 88 87 85 84 83 82 81 80 79 78 77 76 75 74 74 73 73 72 72 71 71 70 70 70 69 69 68 68 67 66 66 65 65 64 64 63 63 63 63 63 63 63 63 63 62 62 62 62 62 61 61 61 61 60
100 99 99 99 99 98 98 97 97 96 95 95 95 94 94 94 93 93 93 92 92 91 91 90 90 89 88 87 86 85 84 83 81 80 79 78 77 76 75 74 73 72 72 71 70 70 69 69 68 68 68 67 67 67 66 66 66 65 65 65 64 64 63 63 63 63 63 63 63 63 63 63 63 63 63 63 63 63 63 62 62 61 61 60 60 60
97 96 96 96 96 96 95 95 94 93 93 92 92 92 91 91 91 90 90 89 88 88 87 86 85 84 83 82 80 79 78 77 75 74 74 73 72 71 71 70 70 69 69 68 68 67 67 66 66 66 65 65 65 65 65 64 64 64 64 63 63 63 63 63 63 63 63 63 63 64 64 64 64 64 63 63 63 63 63 63 62 62 61 60 60 60
94 94 94 93 93 93 93 92 91 91 90 89 89 89 88 88 87 86 86 85 84 83 82 81 80 79 78 77 75 74 73 72 71 71 70 70 70 69 69 68 68 68 67 67 67 67 66 66 66 65 65 65 65 65 64 64 64 64 64 64 63 63 63 63 63 63 63 64 64 64 64 65 64 64 64 64 64 64 64 63 63 62 61 61 60 60
91 91 91 90 90 90 89 89 88 87 86 86 85 85 84 84 83 82 82 81 80 79 78 77 76 75 74 73 72 71 71 70 70 70 69 69 69 69 69 69 68 68 68 68 68 67 67 67 66 66 66 66 66 65 65 65 65 65 65 64 64 64 64 64 64 64 64 65 65 65 65 66 66 65 65 65 65 64 64 64 63 63 62 61 61 60
88 88 87 87 86 86 85 85 84 83 83 82 81 81 80 80 79 79 78 78 77 76 75 74 74 73 72 72 71 70 70 70 70 70 70 70 70 70 70 70 69 69 69 69 69 68 68 68 68 67 67 67 67 67 66 66 66 66 66 66 65 65 65 65 65 65 65 66 66 66 66 66 66 66 66 66 66 65 65 65 64 64 63 62 62 61
84 84 83 83 82 82 81 81 81 80 79 79 78 78 77 77 77 77 77 76 75 74 74 73 73 73 72 72 71 71 71 71 71 71 71 71 71 71 71 71 71 71 71 70 70 70 69 69 69 69 68 68 68 68 68 68 68 67 67 67 67 67 66 66 66 66 66 67 67 67 67 67 67 67 67 67 67 66 66 66 65 65 64 64 63 63
81 81 80 79 79 79 78 78 78 78 77 77 77 76 76 76 76 76 76 76 75 75 74 74 74 74 73 73 73 73 73 73 73 73 73 73 73 73 73 73 72 72 72 72 72 71 71 71 70 70 70 70 70 69 69 69 69 69 68 68 68 68 67 67 67 67 67 68 68 68 68 68 68 69 68 68 68 68 67 67 67 66 66 65 64 64
79 79 78 78 77 77 77 77 77 77 77 77 77 77 77 77 77 77 77 77 77 76 76 76 75 75 75 75 75 75 74 74 75 75 75 75 74 74 74 74 74 74 74 73 73 73 72 72 72 72 72 71 71 71 71 71 70 70 70 69 69 69 69 68 68 68 69 69 69 69 69 69 70 70 70 70 69 69 69 69 68 68 67 66 66 65
79 78 78 78 77 77 77 77 77 77 77 78 78 78 78 78 78 78 79 79 79 78 78 77 77 77 77 77 77 76 76 76 76 76 76 76 76 76 76 76 76 75 75 75 75 74 74 74 73 73 73 73 73 73 72 72 72 71 71 70 70 70 69 69 69 69 70 70 70 70 70 71 71 71 71 71 71 71 71 70 70 69 68 67 67 66
80 79 79 79 78 78 78 78 78 79 79 79 80 80 80 80 80 80 81 81 81 80 80 79 79 79 79 79 79 78 78 78 78 78 78 78 78 78 77 77 77 77 77 76 76 76 75 75 75 75 75 74 74 74 74 73 73 72 72 71 71 71 71 71 71 71 71 71 71 71 72 72 72 72 72 72 72 72 72 72 71 71 70 69 68 67
81 81 81 80 80 80 80 80 80 81 81 82 82 82 82 82 82 82 83 83 83 82 82 81 81 81 81 81 81 80 80 80 80 80 80 80 80 79 79 78 79 78 78 78 77 77 77 76 76 76 76 76 75 75 75 74 74 73 73 72 72 72 72 72 72 72 72 72 72 72 72 73 73 73 73 73 73 73 73 73 73 72 71 70 69 68
84 83 83 83 83 82 82 82 83 83 84 84 84 84 84 85 85 85 85 85 85 84 84 84 84 84 84 84 83 83 82 82 82 82 82 82 82 81 80 80 80 80 80 79 79 79 78 78 78 77 77 77 77 76 76 75 75 74 74 73 73 73 73 73 73 73 73 73 73 73 74 74 74 74 74 74 74 74 74 74 74 73 72 71 70 68
87 86 86 86 85 85 85 85 85 85 86 86 86 87 87 87 87 87 87 87 87 87 87 86 86 86 86 87 86 86 85 84 84 84 84 84 84 84 83 82 82 82 82 81 81 81 80 80 79 79 78 78 78 77 77 76 75 75 74 74 74 74 74 74 74 74 74 74 74 74 74 75 75 75 75 75 75 75 75 75 75 74 73 72 71 69
90 89 89 89 89 88 88 88 88 88 88 89 89 89 89 89 89 89 89 89 89 89 89 89 88 88 89 89 89 89 87 86 86 86 86 86 86 86 85 84 84 84 84 83 83 82 82 81 81 80 80 79 78 78 77 77 76 76 75 75 75 75 75 75 75 75 75 75 75 75 75 76 76 76 76 76 76 77 77 76 76 75 74 73 72 70
93 92 92 92 92 92 91 91 91 91 92 92 92 92 92 92 92 92 92 91 91 91 91 91 91 91 91 91 91 91 90 89 88 88 88 88 88 88 87 86 86 86 86 85 85 84 83 82 82 81 80 80 79 79 78 77 77 76 76 75 75 75 75 75 76 76 76 76 76 76 76 76 77 77 77 77 78 78 78 77 77 76 75 74 72 71
96 95 95 95 95 95 95 94 94 94 94 94 94 94 94 94 94 94 94 94 94 93 93 93 93 93 93 93 93 93 92 91 90 90 90 89 89 89 88 88 87 87 87 87 86 85 84 83 83 82 81 80 80 79 78 78 77 77 76 76 76 76 76 76 76 76 76 77 77 77 77 77 77 78 78 78 79 79 79 78 78 77 76 75 73 72
98 98 98 98 98 98 98 97 97 97 97 97 97 97 96 97 97 97 97 97 96 96 95 95 95 95 95 94 95 94 94 93 92 92 92 91 91 90 90 89 88 88 88 88 87 86 85 84 83 83 82 81 80 79 79 78 78 77 77 77 76 76 76 77 77 77 77 77 77 77 78 78 78 79 79 79 79 80 80 79 79 78 77 75 74 72
101 101 101 100 100 100 100 100 100 99 99 99 99 99 99 99 100 100 100 100 99 98 98 97 97 96 96 96 96 96 96 95 94 94 93 92 92 92 91 90 89 89 89 89 88 87 86 85 84 83 82 82 81 80 79 79 78 78 77 77 77 77 77 77 77 78 78 78 78 78 78 79 79 79 80 80 80 81 80 80 80 79 78 76 74 73
104 103 103 103 103 103 103 103 102 102 102 101 101 101 101 102 102 103 103 102 101 101 100 99 99 98 98 98 98 98 98 97 96 96 95 94 94 93 93 91 90 90 90 90 89 88 87 86 85 84 83 82 81 81 80 79 79 78 78 78 78 78 78 78 78 78 78 78 79 79 79 79 80 80 80 81 81 81 81 81 80 79 78 77 75 73
106 106 106 106 106 105 105 105 105 105 104 104 103 103 104 104 105 105 105 104 104 103 102 102 101 101 100 100 100 100 100 99 98 97 96 96 95 95 94 93 92 91 91 91 90 89 88 87 86 85 84 83 82 82 81 80 80 79 79 79 79 79 79 79 79 79 79 79 79 79 80 80 80 81 81 81 82 82 82 82 81 80 79 77 75 73
109 109 108 108 108 108 108 107 107 107 107 106 106 106 106 107 107 107 107 106 106 105 105 104 104 103 103 102 102 102 102 101 100 99 98 98 97 97 96 95 93 93 93 92 92 90 89 88 87 86 85 84 83 83 82 81 81 80 80 80 79 79 80 80 80 80 80 80 80 80 80 81 81 81 82 82 82 82 82 82 81 81 79 78 76 74
112 111 111 110 110 110 109 109 109 109 109 109 108 108 108 109 109 109 109 109 108 107 107 106 106 106 105 104 104 104 104 103 102 101 100 99 99 98 98 97 95 94 94 94 93 92 91 90 89 88 86 86 85 84 83 82 82 81 81 81 80 80 80 81 81 80 81 81 81 81 81 81 81 82 82 82 83 83 83 82 82 81 80 78 76 74
114 114 113 113 112 112 112 111 111 111 111 111 111 111 111 111 111 111 111 111 110 110 109 109 108 108 107 107 106 106 106 105 105 103 102 101 101 100 100 99 97 96 95 95 94 93 92 91 90 89 88 87 86 85 84 83 83 82 82 82 81 81 81 81 81 81 81 81 81 82 82 82 82 82 83 83 83 83 83 83 82 82 80 79 77 75
117 116 115 115 115 114 114 113 113 113 113 113 113 113 113 112 113 113 113 113 112 112 112 111 110 110 109 109 109 108 108 107 107 106 105 103 102 102 102 101 99 98 97 97 96 95 94 92 91 90 89 88 87 86 85 85 84 83 83 83 83 82 82 82 82 82 82 82 82 82 82 82 83 83 83 83 83 84 83 83 83 82 81 79 77 75
119 118 118 117 117 117 116 116 116 116 115 115 115 115 115 114 114 115 115 114 114 114 114 114 113 112 111 111 111 110 110 110 109 108 107 105 105 104 104 103 101 100 99 98 97 97 95 94 93 91 90 89 88 87 87 86 85 85 84 84 84 84 84 84 83 83 83 83 83 83 83 83 83 83 84 84 84 84 84 84 83 82 81 80 78 76
121 121 121 120 120 119 119 119 118 118 118 118 118 117 117 117 116 116 116 116 116 116 116 116 115 114 113 112 112 112 112 112 111 110 109 107 107 107 106 105 103 102 101 100 99 98 97 96 94 93 92 91 90 89 88 87 86 86 86 85 85 85 85 85 84 84 84 84 84 84 84 84 84 84 84 84 84 84 84 84 83 83 82 80 78 76
124 124 124 123 123 122 122 121 121 121 120 120 120 120 119 119 119 118 118 118 118 118 118 118 117 116 115 114 113 113 113 114 113 112 111 110 109 108 107 106 105 104 103 101 100 99 98 97 96 95 93 92 91 90 89 88 88 87 87 87 86 86 86 86 85 85 85 85 85 85 84 85 85 85 85 85 85 85 84 84 84 83 82 80 79 77
126 126 126 126 126 125 124 124 124 123 123 123 122 122 122 121 121 120 120 119 119 120 120 120 119 118 117 116 115 114 114 115 115 114 113 112 111 110 109 108 107 106 104 103 101 100 99 98 98 96 95 93 92 91 90 90 89 88 88 88 88 87 87 87 86 86 86 86 85 85 85 85 85 85 85 85 85 85 85 84 84 83 82 80 79 77
128 128 128 128 128 127 127 127 126 126 125 125 124 124 123 123 122 122 121 121 121 121 121 121 120 119 118 117 116 116 115 115 115 115 114 113 112 111 110 109 108 107 106 104 103 101 100 99 99 97 96 95 94 92 92 91 90 90 89 89 89 89 88 88 87 87 87 87 86 86 86 86 86 86 86 86 85 85 85 84 84 83 82 80 79 77
130 130 130 130 129 129 129 128 128 127 127 126 126 125 125 124 124 123 123 122 122 122 121 121 121 120 119 118 117 117 116 116 116 116 115 115 114 113 111 110 109 108 107 105 104 103 101 100 99 98 97 96 95 94 93 92 91 91 90 90 90 90 89 89 88 88 88 87 87 87 87 87 87 86 86 86 86 86 85 85 84 83 82 80 79 77
130 130 130 130 130 130 130 129 129 128 128 127 127 126 126 125 125 124 124 123 122 122 122 121 121 120 120 119 118 117 117 116 116 116 116 115 114 113 112 111 110 109 107 106 105 104 102 101 100 99 98 97 96 95 94 93 92 92 91 91 91 90 90 90 89 89 88 88 88 88 87 87 87 87 87 86 86 86 85 85 84 83 82 80 78 77
130 130 130 129 129 129 129 129 129 128 128 127 127 126 125 125 125 124 124 123 122 122 122 121 121 120 119 118 118 117 117 116 116 116 116 115 115 113 112 111 110 109 108 107 105 104 103 102 101 100 99 98 97 96 95 94 93 92 92 92 92 91 91 90 90 89 89 89 88 88 88 88 87 87 87 87 86 86 85 85 84 83 82 80 78 76
127 127 127 127 127 128 128 128 128 127 127 126 126 125 124 124 124 123 123 122 122 121 121 120 120 119 118 118 117 116 116 116 115 115 115 115 114 113 112 111 110 109 108 107 106 105 103 102 101 100 99 99 98 97 96 95 94 93 93 93 92 92 92 91 90 90 90 89 89 89 88 88 88 88 87 87 86 86 85 85 84 83 81 80 78 76
123 123 124 124 124 124 125 125 125 125 124 124 124 123 122 122 121 121 120 120 119 119 119 118 118 118 117 117 116 115 115 114 114 114 114 114 114 113 112 111 110 109 108 107 106 104 103 102 101 101 100 99 98 97 96 95 95 94 94 93 93 92 92 92 91 90 90 90 89 89 89 88 88 88 87 87 87 86 85 85 84 83 81 80 78 76
118 118 118 119 119 120 121 121 121 121 121 121 120 120 119 119 118 118 117 117 116 116 116 116 115 115 115 115 114 114 113 113 113 113 113 113 113 112 112 111 110 109 108 107 105 104 103 102 101 100 100 99 98 97 96 96 95 95 94 94 93 93 92 92 91 91 90 90 90 89 89 89 88 88 88 87 87 86 86 85 84 82 81 79 77 75
111 112 112 113 114 114 115 116 116 116 116 116 116 115 115 115 114 114 113 113 112 112 112 112 112 112 112 112 112 112 111 111 111 111 111 112 111 111 111 110 109 109 107 106 105 104 103 102 101 100 99 99 98 97 97 96 95 95 94 94 93 93 93 92 91 91 91 90 90 89 89 89 88 88 88 87 87 86 85 85 83 82 80 79 77 75
105 105 106 107 107 108 109 110 110 110 111 111 111 110 110 110 110 109 109 108 108 108 108 108 108 108 108 108 108 108 108 108 108 109 109 109 110 110 109 109 108 108 107 106 105 104 102 102 101 100 99 98 98 97 97 96 95 95 94 94 93 93 93 92 91 91 91 90 90 90 89 89 88 88 88 87 86 86 85 84 83 82 80 78 76 74
99 99 100 100 101 102 103 103 104 104 105 105 105 105 105 105 105 104 104 104 103 103 103 103 103 103 104 104 104 104 105 105 105 106 106 107 107 107 107 107 107 106 105 105 104 103 102 101 100 99 99 98 98 97 97 96 95 95 94 94 93 93 92 92 92 91 91 90 90 90 89 89 88 88 88 87 86 85 84 83 82 81 79 77 74 72
94 94 94 95 95 96 97 98 98 99 99 99 99 100 100 100 99 99 99 99 99 98 98 98 98 98 99 99 100 100 100 100 101 102 103 103 104 104 105 105 104 104 104 103 103 102 101 100 99 99 98 97 97 97 97 96 95 95 94 93 93 92 92 92 92 91 91 90 90 89 89 89 88 88 87 86 86 85 84 83 81 79 77 75 73 70
89 89 89 90 90 91 92 93 93 94 94 94 94 95 95 95 95 95 95 94 94 94 93 93 93 93 94 94 94 95 95 96 97 98 99 100 100 101 101 102 102 101 101 101 101 100 100 99 98 98 97 96 96 96 96 96 95 94 93 93 92 92 92 92 92 91 91 90 90 89 89 88 88 87 87 86 85 84 83 81 80 78 76 73 71 68
85 85 85 85 86 87 87 88 89 89 89 90 90 90 90 90 90 90 90 90 90 89 89 89 88 89 89 89 89 89 90 91 92 93 94 95 96 97 97 98 98 98 98 98 98 98 97 97 97 96 96 95 95 95 95 95 94 94 93 92 92 92 92 91 91 91 91 90 90 89 88 88 87 87 86 85 84 83 82 80 78 76 73 71 69 66
82 82 82 82 82 83 83 84 84 85 85 86 86 86 86 86 86 86 86 86 86 86 85 84 84 84 84 84 84 84 85 87 88 89 90 91 92 93 93 94 94 95 95 95 95 95 95 95 94 94 94 94 94 94 94 94 94 93 92 92 91 91 91 91 91 90 90 89 89 88 88 87 86 86 85 85 83 81 80 78 76 73 71 69 66 64
79 78 78 78 79 79 80 80 81 81 82 82 83 83 83 83 83 83 83 83 82 82 81 80 80 80 79 79 79 80 81 82 84 85 86 87 88 88 89 90 90 91 91 91 91 91 91 91 91 91 92 92 92 93 93 92 92 92 91 91 90 90 90 90 90 89 89 88 88 87 86 86 86 85 84 83 81 80 77 75 73 71 68 66 64 62
75 75 75 75 76 76 76 77 77 78 79 79 79 79 79 79 79 79 80 79 79 78 78 77 76 75 75 75 76 76 78 79 80 81 82 83 84 84 85 86 86 86 87 87 87 88 88 88 88 88 89 89 90 90 90 90 90 90 90 89 89 89 89 89 89 88 87 86 86 85 85 85 84 83 82 81 79 77 75 73 70 68 65 63 61 59
72 72 72 72 73 73 73 74 74 75 75 76 76 76 76 76 76 76 76 76 75 75 74 73 72 72 72 72 73 73 74 76 76 77 78 79 80 80 81 81 82 82 83 83 83 84 84 84 85 85 86 86 87 88 88 88 88 87 87 87 87 87 87 87 87 86 85 84 84 84 83 83 82 81 80 78 77 75 72 70 67 65 63 60 58 56
69 69 69 70 70 70 71 71 71 72 72 72 72 73 73 73 73 73 73 73 72 71 70 69 69 69 69 69 70 71 72 73 73 74 75 76 76 77 77 77 78 78 79 79 80 80 81 81 81 82 82 83 84 84 85 85 85 85 85 85 85 85 85 85 84 83 82 82 82 82 81 80 79 78 76 75 73 71 69 66 64 62 60 58 56 54
66 67 67 67 67 68 68 68 69 69 69 69 69 69 69 70 70 70 70 69 68 67 66 66 66 66 67 67 68 68 69 70 70 71 72 72 73 73 74 74 74 75 75 76 76 77 77 78 78 79 79 80 80 81 81 82 82 82 82 82 82 82 82 82 81 80 80 80 80 80 79 78 76 75 73 72 70 68 66 63 61 59 57 55 53 51
Wind_Direction
279 279 280 280 280 280 280 280 280 280 280 280 280 280 280 280 280 280 280 281 281 281 281 281 281 281 282 282 282 282 282 282 282 282 282 282 282 282 282 282 282 282 282 282 282 282 282 282 282 283 283 283 283 284 284 284 284 284 284 284 284 284 285 285 285 285 286 286 287 287 287 288 288 289 289 290 291 291 292 292 293 293 294 295 296 296
278 278 279 279 279 279 279 279 279 279 279 279 279 279 279 279 279 279 280 280 280 280 280 280 280 280 281 281 281 281 281 281 282 282 282 282 282 282 282 282 282 282 282 282 282 282 282 282 283 283 283 283 283 283 283 284 284 284 284 284 284 285 285 285 286 286 286 287 287 288 288 288 289 289 290 290 291 292 292 293 293 294 295 296 297 298
278 278 278 278 278 278 278 279 279 279 279 279 279 279 279 279 279 279 279 279 279 279 280 280 280 280 280 281 281 281 281 281 282 282 282 282 282 282 282 282 282 282 282 282 282 282 283 283 283 283 283 283 283 283 283 284 284 284 284 284 285 285 285 286 286 287 287 287 288 288 289 289 290 290 291 291 292 292 293 294 294 295 296 297 298 299
277 277 277 278 278 278 278 278 278 278 278 278 278 278 279 279 279 279 279 279 279 279 280 280 280 280 280 281 281 281 281 282 282 282 282 282 282 282 282 282 282 282 282 282 283 283 283 283 283 283 283 283 283 284 284 284 284 284 284 285 285 286 286 287 287 287 288 288 289 289 289 290 290 291 291 292 293 293 294 294 295 296 297 298 299 300
277 277 277 277 277 277 277 277 277 277 278 278 278 278 278 279 279 279 279 279 279 280 280 280 280 280 281 281 281 281 281 281 282 282 282 282 282 282 282 282 282 282 283 283 283 283 283 284 284 284 284 284 284 284 284 284 284 285 285 285 286 286 287 287 288 288 288 289 289 290 290 291 291 292 292 293 294 294 295 296 296 297 298 299 300 301
276 276 277 277 277 277 277 277 277 277 278 278 278 278 278 279 279 279 279 280 280 280 280 280 280 280 280 281 281 281 281 281 281 281 281 281 281 282 282 282 282 283 283 283 283 284 284 284 284 284 284 284 284 284 284 284 285 285 285 286 286 287 287 288 288 288 289 289 290 290 291 291 292 292 293 294 295 295 296 297 298 298 299 300 301 302
277 277 277 277 277 277 277 277 277 277 278 278 278 278 278 279 279 279 279 279 279 280 280 280 280 280 280 280 280 281 281 281 281 281 281 281 281 282 282 282 282 283 283 283 283 284 284 284 284 284 284 284 284 285 285 285 285 285 286 286 287 287 287 288 288 289 289 290 290 291 291 292 292 293 294 295 295 296 297 298 298 299 300 301 302 303
277 277 277 277 277 277 277 277 278 278 278 278 278 278 278 278 279 279 279 279 279 279 279 279 279 279 279 280 280 280 280 280 280 281 281 281 281 282 282 282 282 283 283 283 283 284 284 284 284 284 284 285 285 285 285 285 285 286 286 286 287 287 288 288 289 289 290 290 291 291 292 292 293 294 295 295 296 297 298 298 299 300 301 302 303 304
277 277 277 277 277 277 277 278 278 278 278 278 278 278 278 278 278 278 278 278 278 278 278 278 279 279 279 279 279 279 280 280 280 280 281 281 281 281 282 282 282 283 283 283 283 284 284 284 284 284 285 285 285 285 285 285 286 286 286 287 287 288 288 289 289 290 290 291 291 292 292 293 294 295 295 296 297 298 298 299 300 301 302 303 305 305
276 276 276 276 277 277 277 277 277 278 278 278 278 278 278 278 278 278 278 277 277 278 278 278 278 278 278 278 279 279 279 279 280 280 280 281 281 281 282 282 282 283 283 283 283 284 284 284 284 285 285 285 285 285 285 286 286 286 287 287 288 288 289 289 290 290 291 291 292 292 293 294 294 295 296 297 298 299 299 300 301 302 303 304 306 306
276 276 276 276 276 276 277 277 277 277 277 277 277 277 277 277 277 277 277 277 277 277 278 278 278 278 278 279 279 279 279 279 280 280 280 281 281 281 282 282 282 283 283 283 284 284 284 284 284 285 285 285 285 285 285 286 286 287 287 288 288 289 289 290 290 290 291 291 292 293 293 294 295 296 297 298 299 299 300 301 302 303 304 305 306 307
276 276 276 276 276 276 276 276 276 277 277 277 277 277 277 277 277 277 277 277 277 278 278 278 278 278 278 279 279 279 279 280 280 280 280 281 281 281 282 282 282 283 283 283 284 284 284 284 284 285 285 285 285 285 286 286 287 287 288 288 289 289 290 290 290 291 291 292 292 293 294 295 296 297 298 299 299 300 301 302 302 303 304 306 307 308
275 275 275 275 275 275 275 276 276 276 276 276 276 276 276 276 277 277 277 277 277 277 278 278 278 278 279 279 279 279 279 280 280 280 281 281 281 281 282 282 282 283 283 283 283 284 284 284 284 284 285 285 285 285 286 286 287 287 288 288 289 289 290 290 291 291 292 292 293 294 295 295 296 297 298 299 300 300 301 302 303 304 305 306 307 308
274 274 274 274 274 274 274 275 275 275 275 275 275 275 275 276 276 276 276 276 277 277 277 278 278 278 278 279 279 279 279 280 280 280 281 281 281 281 282 282 282 283 283 283 283 283 284 284 284 284 284 285 285 285 286 286 287 287 288 288 289 289 290 290 291 291 292 292 293 294 295 296 296 297 298 299 300 300 301 302 303 304 305 306 307 308
274 274 274 273 273 273 273 273 273 274 274 274 274 274 275 275 275 275 275 276 276 277 277 277 277 278 278 278 278 279 279 279 280 280 281 281 281 282 282 282 282 283 283 283 283 283 283 284 284 284 284 285 285 285 286 286 287 287 288 288 289 289 289 290 290 291 292 292 293 294 295 295 296 297 298 298 299 300 301 302 302 303 304 306 307 307
274 273 273 273 273 273 273 273 273 273 273 274 274 274 274 274 275 275 275 276 276 277 277 277 277 278 278 278 278 278 279 279 280 280 281 281 281 282 282 282 282 282 283 283 283 283 283 284 284 284 284 284 285 285 286 286 286 287 287 288 288 289 289 290 290 291 291 292 293 293 294 295 296 297 297 298 299 300 301 301 302 303 304 305 306 307
274 273 273 273 273 273 273 273 273 273 273 273 274 274 274 274 275 275 276 276 276 277 277 277 278 278 278 279 279 279 279 280 280 280 281 281 281 282 282 282 282 282 282 283 283 283 283 283 283 283 284 284 284 285 285 286 286 287 287 287 288 288 289 289 290 290 291 291 292 293 294 295 295 296 297 298 298 299 300 301 302 303 304 305 306 307
274 274 274 274 274 274 274 274 274 274 274 274 274 274 275 275 276 276 276 276 277 277 277 278 278 278 279 279 279 280 280 280 280 281 281 281 281 282 282 282 282 282 282 282 282 282 283 283 283 283 283 284 284 284 285 285 286 286 286 287 287 288 288 288 289 289 290 291 292 293 293 294 295 296 296 297 298 299 300 301 302 303 304 305 306 307
274 274 274 274 274 274 274 274 275 275 275 275 275 275 276 276 276 277 277 277 277 277 278 278 278 279 279 279 280 280 280 280 280 281 281 281 281 281 281 282 282 282 282 282 282 282 282 282 282 282 283 283 283 284 284 285 285 285 286 286 286 287 287 288 288 289 290 290 291 292 293 294 294 295 296 297 298 298 299 300 301 302 303 305 306 307
274 274 275 275 275 275 275 275 275 275 275 275 276 276 276 276 277 277 277 277 277 277 278 278 278 279 279 279 280 280 280 280 280 280 280 280 280 280 281 281 281 281 281 281 281 281 281 281 282 282 282 282 283 283 284 284 284 285 285 285 286 286 287 287 288 288 289 290 291 291 292 293 294 295 295 296 297 298 299 300 301 302 303 305 306 307
274 274 275 275 275 275 275 275 275 275 275 275 276 276 276 276 276 276 276 276 277 277 277 277 278 278 278 279 279 279 279 279 279 279 279 279 279 279 280 280 280 280 280 280 280 280 281 281 281 281 281 282 282 282 283 283 283 284 284 285 285 285 286 286 287 288 288 289 290 291 292 292 293 294 295 296 297 298 299 300 301 302 303 304 306 307
274 274 274 274 274 274 275 275 275 275 275 275 275 276 276 276 276 276 276 276 276 276 277 277 277 277 277 278 278 278 278 278 278 278 278 278 278 278 278 278 279 279 279 279 279 280 280 280 280 280 281 281 281 282 282 282 283 283 283 284 284 285 285 286 286 287 288 289 289 290 291 292 293 293 294 295 296 297 298 299 300 301 303 304 305 307
274 274 274 274 274 274 274 274 274 274 274 275 275 275 275 275 275 275 275 276 276 276 276 276 276 277 277 277 277 277 277 277 277 277 277 277 277 277 278 278 277 277 278 278 278 279 279 279 279 280 280 280 280 281 281 281 282 282 282 283 283 284 284 285 285 286 287 288 289 289 290 291 292 293 294 295 296 297 298 299 300 301 302 303 305 306
274 274 274 274 274 274 274 274 274 274 274 274 274 274 274 274 274 275 275 275 275 276 276 276 276 276 276 276 276 276 276 276 276 276 276 276 276 276 277 277 277 276 277 277 277 278 278 278 278 279 279 279 279 280 280 280 281 281 282 282 282 283 283 284 285 285 286 287 288 289 289 290 291 292 293 294 295 296 297 298 299 300 301 302 304 305
274 274 274 273 273 273 273 274 274 274 274 274 274 274 274 274 274 274 275 275 275 275 275 275 275 275 275 275 275 275 275 275 275 275 275 275 275 276 276 276 276 276 276 276 277 277 277 277 277 278 278 278 278 279 279 280 280 280 281 281 282 282 283 283 284 285 285 286 287 288 289 290 291 291 292 293 294 295 296 297 298 299 300 302 303 304
274 274 274 274 273 273 273 273 273 273 273 273 273 273 273 273 273 274 274 274 274 274 274 274 274 274 275 275 274 274 275 275 275 275 275 275 275 275 275 275 275 275 275 275 276 276 276 276 277 277 277 277 278 278 278 279 279 280 280 280 281 281 282 282 283 284 285 285 286 287 288 289 290 291 292 293 294 294 295 297 298 299 300 301 302 303
274 274 274 274 274 274 274 273 273 273 273 273 273 273 273 273 273 273 273 274 274 274 274 274 274 274 274 274 274 274 274 274 274 274 274 274 274 274 274 274 274 274 274 275 275 275 275 275 276 276 276 277 277 277 278 278 278 279 279 280 280 281 281 282 282 283 284 285 285 286 287 288 289 290 291 292 293 294 295 296 297 298 299 300 301 303
275 275 275 274 274 274 274 274 273 273 273 273 273 273 273 273 273 273 273 274 274 274 274 274 274 274 274 274 274 274 274 274 274 274 274 274 273 273 274 274 274 274 274 274 274 275 275 275 275 275 276 276 276 277 277 277 278 278 278 279 279 280 280 281 282 282 283 284 285 286 286 287 288 289 290 291 292 293 294 295 296 297 298 299 301 302
275 275 275 275 275 274 274 274 274 274 273 273 273 273 273 273 273 273 273 274 274 274 273 273 273 273 273 273 273 273 273 273 273 273 273 273 273 273 273 273 273 273 273 273 274 274 274 274 274 275 275 275 276 276 276 277 277 277 278 278 278 279 279 280 281 282 282 283 284 285 286 287 287 288 289 290 291 292 293 294 295 296 298 299 300 301
276 275 275 275 275 275 274 274 274 274 274 274 273 273 273 273 273 273 273 273 273 273 273 273 273 273 273 273 273 273 273 273 273 273 273 272 272 272 273 273 273 273 273 273 273 273 273 274 274 274 274 274 275 275 275 276 276 276 277 277 278 278 279 279 280 281 282 282 283 284 285 286 287 288 289 290 291 292 293 294 295 296 297 298 299 301
276 276 275 275 275 275 275 275 274 274 274 274 274 273 273 273 273 273 273 273 273 273 273 273 273 273 273 272 272 272 272 273 273 273 273 272 272 272 272 272 272 272 272 272 272 272 273 273 273 273 273 274 274 274 275 275 275 276 276 276 277 278 278 279 279 280 281 282 282 283 284 285 286 287 288 289 290 291 292 293 294 295 296 297 299 300
276 276 275 275 275 275 275 275 275 274 274 274 274 274 273 273 273 273 273 272 272 272 272 272 272 272 272 272 271 271 272 272 272 272 272 272 271 272 272 272 272 272 272 272 271 271 272 272 272 273 273 273 273 273 274 274 274 275 275 276 276 277 277 278 279 279 280 281 282 283 283 284 285 286 287 288 289 290 291 292 293 294 295 296 298 299
275 275 275 275 275 275 275 275 275 274 274 274 274 273 273 273 273 273 272 272 272 272 272 272 272 272 271 271 271 271 271 271 271 271 271 271 271 271 271 271 271 271 271 271 271 271 271 271 271 272 272 272 272 272 273 273 273 274 274 275 275 276 277 277 278 279 279 280 281 282 283 284 284 285 286 287 288 289 290 291 292 293 294 296 297 298
275 275 275 275 275 275 275 274 274 274 274 274 273 273 273 273 272 272 272 272 271 271 271 271 271 271 271 270 270 270 270 270 270 270 270 270 270 270 271 270 270 270 271 271 271 270 270 270 270 271 271 271 271 272 272 272 273 273 273 274 274 275 276 276 277 278 279 279 280 281 282 283 284 285 285 286 287 288 289 290 291 292 293 295 296 297
274 274 274 274 274 274 274 274 274 274 273 273 273 273 272 272 272 272 271 271 271 270 270 270 270 270 270 270 269 269 269 269 269 269 270 269 270 270 270 270 270 270 270 270 270 270 270 270 270 270 270 270 271 271 271 271 272 272 273 273 274 274 275 276 276 277 278 279 279 280 281 282 283 284 285 285 286 287 288 289 290 291 292 294 295 296
273 273 274 274 274 273 273 273 273 273 273 273 272 272 272 271 271 271 270 270 270 270 269 269 269 269 269 269 268 268 268 268 268 268 268 269 269 269 269 269 269 269 269 269 269 269 269 269 269 269 269 269 270 270 270 270 271 271 271 272 273 273 274 275 275 276 277 278 279 279 280 281 282 283 284 285 285 286 287 288 289 290 291 293 294 295
273 273 273 273 273 273 273 272 272 272 272 272 271 271 271 270 270 270 269 269 269 269 268 268 268 268 268 268 267 267 267 267 267 267 267 267 268 268 268 268 268 268 268 268 268 268 268 268 268 268 268 268 268 269 269 270 270 270 270 271 272 272 273 274 274 275 276 277 278 278 279 280 281 282 283 284 285 286 286 287 288 289 291 292 293 294
272 272 272 272 272 272 271 271 271 271 271 271 270 270 270 269 269 269 269 268 268 268 267 267 267 267 267 267 266 266 266 266 266 266 266 266 266 266 266 266 267 267 266 266 266 267 267 267 267 267 267 267 268 268 268 268 269 269 270 270 271 271 272 273 274 274 275 276 277 277 278 279 280 281 282 283 284 285 285 286 287 289 290 291 292 293
271 271 271 271 271 270 270 270 270 270 270 270 269 269 269 269 268 268 268 267 267 267 266 266 266 266 266 265 265 265 265 265 264 264 265 265 265 265 265 265 265 265 265 265 265 265 265 266 266 266 266 266 267 267 267 267 268 268 269 269 270 270 271 272 273 273 274 275 276 277 277 278 279 280 281 282 283 284 285 286 287 288 289 290 291 292
271 270 270 270 270 269 269 269 269 269 269 268 268 268 268 268 267 267 267 266 266 266 265 265 265 265 264 264 264 264 264 263 263 263 263 263 263 263 264 264 264 264 264 264 264 264 264 264 264 265 265 265 266 266 266 266 267 267 268 268 269 269 270 271 272 272 273 274 275 276 276 277 278 279 280 281 282 283 284 285 286 287 288 289 290 291
270 270 269 269 269 268 268 268 268 268 268 267 267 267 267 267 266 266 266 265 265 265 264 264 264 263 263 263 263 262 262 262 262 262 262 262 262 262 262 262 263 263 263 263 263 263 263 263 263 263 264 264 264 265 265 265 266 266 267 267 268 269 269 270 271 272 272 273 274 275 275 276 277 278 279 280 281 282 283 284 285 286 287 288 289 290
270 269 269 268 268 268 267 267 267 267 266 266 266 266 266 266 266 265 265 265 264 264 263 263 262 262 262 262 261 261 261 261 261 261 260 260 261 261 261 261 261 261 262 262 262 262 262 262 262 262 262 263 263 263 264 264 265 265 266 266 267 268 269 269 270 271 271 272 273 274 274 275 276 277 278 279 280 281 281 282 284 285 286 287 288 289
269 268 268 267 267 267 266 266 266 266 265 265 265 265 265 265 264 264 264 263 263 263 262 262 261 261 261 260 260 260 260 260 259 259 259 259 259 259 260 260 260 260 260 260 260 261 261 261 261 261 261 262 262 262 263 263 264 264 265 265 266 267 267 268 269 269 270 271 272 273 273 274 275 276 277 278 279 279 280 281 283 284 285 286 287 288
268 268 267 267 266 266 265 265 265 265 264 264 264 264 264 263 263 263 263 262 262 262 261 261 260 260 259 259 259 259 258 258 258 258 258 258 258 258 258 258 258 259 259 259 259 259 259 259 260 260 260 260 261 261 261 262 262 263 264 264 265 265 266 267 268 268 269 270 271 272 272 273 274 275 276 277 277 278 279 280 282 283 284 285 286 286
268 267 267 266 265 265 264 264 264 264 263 263 263 263 262 262 262 262 261 261 261 260 260 260 259 259 258 258 258 257 257 257 257 257 256 256 256 257 257 257 257 257 257 257 258 258 258 258 258 258 259 259 259 260 260 261 261 262 262 263 264 264 265 266 266 267 268 269 270 270 271 272 273 274 274 275 276 277 278 279 281 282 283 284 284 284
267 267 266 265 265 264 264 263 263 263 262 262 262 262 261 261 261 261 260 260 260 259 259 259 258 258 257 257 257 256 256 256 256 255 255 255 255 255 255 255 255 256 256 256 256 256 256 257 257 257 258 258 258 258 259 259 260 261 261 262 262 263 264 264 265 266 267 267 268 269 270 271 272 272 273 274 275 276 277 279 280 281 282 282 282 282
267 266 266 265 264 264 263 263 262 262 261 261 261 261 260 260 260 260 259 259 259 259 258 258 257 257 257 256 256 255 255 254 254 254 254 254 254 254 254 254 254 254 254 254 255 255 255 255 255 256 256 256 257 257 258 258 259 259 260 260 261 262 262 263 264 265 265 266 267 268 269 270 270 271 272 273 274 275 276 278 279 279 280 280 280 280
267 266 265 265 264 263 262 262 261 261 261 260 260 260 260 260 259 259 259 259 258 258 258 257 257 256 256 255 255 254 253 253 253 253 252 252 252 252 252 252 253 253 253 253 253 253 254 254 254 254 254 255 255 256 256 257 257 258 258 259 260 260 261 262 263 263 264 265 266 267 267 268 269 270 271 272 273 274 275 276 277 278 278 278 278 278
266 266 265 264 263 263 262 261 261 260 260 260 260 259 259 259 259 258 258 258 258 258 257 257 256 256 255 254 253 253 252 252 252 251 251 251 251 251 251 251 251 251 251 252 252 252 252 252 252 253 253 253 254 254 255 255 256 256 257 258 258 259 260 260 261 262 263 264 264 265 266 267 267 269 270 271 272 273 274 275 276 276 276 276 276 276
266 265 264 264 263 262 261 261 260 260 259 259 259 259 258 258 258 258 258 258 257 257 256 256 255 255 254 253 252 251 251 251 250 250 250 250 250 250 250 250 250 250 250 250 250 250 250 250 251 251 251 251 252 252 253 254 254 255 255 256 257 257 258 259 260 260 261 262 263 263 264 265 266 267 269 270 271 272 273 274 274 274 274 274 274 273
265 264 264 263 262 262 261 260 260 259 259 259 258 258 258 258 257 257 257 257 257 256 255 255 254 253 252 252 251 250 250 250 249 249 249 249 249 249 249 249 249 248 248 248 249 249 249 249 249 249 249 250 250 250 251 252 252 253 254 254 255 255 256 257 258 259 260 260 261 262 263 264 265 266 267 269 270 271 271 272 272 272 272 272 271 271
Height
10514 10512 10512 10512 10512 10511 10510 10510 10512 10512 10511 10511 10512 10512 10512 10511 10510 10510 10509 10509 10509 10508 10508 10507 10507 10507 10507 10507 10507 10506 10506 10505 10505 10505 10504 10503 10502 10501 10500 10499 10498 10497 10496 10495 10495 10494 10494 10494 10494 10493 10492 10492 10490 10490 10489 10488 10487 10487 10486 10485 10485 10484 10484 10484 10484 10484 10483 10482 10482 10481 10480 10480 10479 10478 10477 10477 10477 10476 10475 10474 10472 10470 10469 10468 10467 10465
10507 10505 10505 10504 10504 10504 10502 10502 10503 10504 10503 10503 10503 10503 10503 10502 10502 10501 10501 10501 10501 10500 10500 10500 10499 10499 10499 10499 10499 10498 10498 10497 10497 10496 10495 10495 10494 10493 10492 10491 10490 10489 10489 10488 10487 10487 10487 10487 10486 10486 10485 10485 10484 10484 10482 10482 10481 10480 10480 10479 10479 10479 10479 10478 10478 10478 10477 10477 10476 10475 10475 10475 10474 10474 10473 10472 10472 10471 10470 10469 10467 10466 10465 10463 10462 10461
10500 10498 10496 10496 10496 10495 10494 10494 10494 10495 10495 10494 10494 10494 10494 10494 10493 10492 10492 10492 10492 10492 10492 10492 10492 10491 10491 10490 10490 10490 10490 10489 10489 10489 10488 10487 10486 10485 10484 10484 10483 10482 10482 10481 10481 10480 10480 10480 10480 10479 10479 10479 10478 10477 10477 10476 10475 10475 10474 10474 10474 10473 10473 10473 10472 10472 10472 10471 10470 10470 10470 10470 10469 10469 10468 10467 10466 10465 10465 10464 10463 10462 10460 10459 10457 10455
10492 10490 10488 10488 10488 10487 10487 10487 10487 10487 10487 10487 10486 10485 10485 10485 10484 10484 10484 10484 10484 10484 10484 10484 10484 10484 10483 10483 10482 10482 10482 10482 10482 10481 10480 10479 10479 10478 10477 10477 10476 10475 10475 10475 10475 10474 10474 10474 10474 10474 10473 10472 10472 10472 10471 10470 10470 10469 10469 10469 10469 10468 10468 10467 10467 10467 10466 10465 10465 10464 10464 10464 10463 10463 10463 10462 10461 10460 10459 10459 10458 10457 10455 10454 10452 10451
10484 10483 10481 10480 10480 10479 10479 10479 10480 10479 10479 10479 10478 10477 10477 10477 10476 10475 10475 10476 10476 10475 10475 10475 10475 10475 10475 10475 10475 10475 10475 10475 10474 10474 10473 10472 10472 10471 10470 10470 10470 10470 10469 10469 10469 10469 10469 10469 10468 10468 10467 10467 10467 10466 10465 10465 10465 10464 10464 10464 10464 10463 10462 10462 10462 10461 10460 10460 10459 10459 10459 10458 10458 10457 10457 10457 10456 10455 10454 10453 10452 10452 10450 10449 10448 10447
10475 10475 10474 10473 10472 10471 10470 10471 10472 10472 10471 10470 10470 10470 10469 10469 10469 10468 10468 10468 10468 10468 10468 10468 10468 10469 10469 10469 10469 10469 10469 10469 10468 10467 10467 10466 10465 10465 10465 10464 10464 10464 10464 10463 10463 10463 10463 10463 10462 10462 10462 10462 10461 10461 10460 10460 10459 10459 10459 10459 10459 10458 10458 10457 10457 10456 10455 10455 10454 10453 10453 10452 10452 10452 10452 10452 10450 10450 10449 10447 10447 10446 10445 10444 10443 10442
10467 10467 10466 10465 10464 10463 10463 10463 10464 10464 10464 10463 10462 10462 10462 10462 10461 10460 10460 10460 10460 10460 10461 10461 10461 10462 10462 10462 10462 10462 10462 10462 10462 10461 10460 10460 10460 10459 10459 10459 10459 10458 10458 10458 10457 10457 10457 10457 10457 10457 10457 10456 10456 10455 10455 10455 10454 10454 10454 10454 10454 10453 10452 10452 10452 10451 10450 10449 10449 10448 10447 10447 10447 10446 10446 10445 10445 10444 10443 10442 10441 10440 10440 10439 10438 10437
10459 10459 10459 10457 10456 10455 10455 10455 10455 10456 10456 10455 10455 10455 10454 10454 10454 10454 10454 10454 10454 10454 10454 10454 10455 10455 10455 10456 10456 10456 10456 10456 10455 10455 10455 10454 10454 10454 10453 10453 10453 10453 10452 10452 10452 10452 10452 10452 10452 10452 10451 10450 10450 10450 10450 10449 10449 10449 10449 10449 10448 10448 10447 10447 10447 10446 10445 10444 10444 10442 10442 10441 10441 10440 10440 10440 10440 10439 10437 10437 10435 10435 10434 10434 10433 10432
10452 10451 10450 10450 10449 10449 10448 10447 10448 10448 10449 10448 10448 10447 10447 10447 10446 10446 10447 10447 10447 10448 10449 10449 10449 10449 10449 10450 10450 10450 10450 10450 10450 10449 10449 10449 10448 10448 10447 10447 10447 10447 10447 10447 10447 10447 10446 10446 10446 10446 10445 10445 10445 10444 10444 10444 10444 10444 10444 10443 10443 10442 10442 10442 10441 10440 10440 10439 10438 10437 10437 10436 10435 10435 10435 10434 10434 10434 10432 10431 10430 10429 10429 10428 10427 10426
10445 10444 10444 10443 10442 10442 10442 10440 10440 10440 10441 10441 10440 10440 10440 10440 10439 10439 10439 10440 10440 10442 10442 10442 10442 10442 10443 10444 10444 10445 10445 10444 10444 10444 10443 10442 10442 10442 10442 10441 10441 10441 10441 10441 10441 10440 10440 10440 10440 10440 10440 10440 10439 10439 10439 10438 10438 10438 10438 10438 10437 10437 10437 10436 10435 10435 10434 10434 10432 10432 10431 10430 10430 10429 10429 10429 10428 10427 10427 10426 10425 10424 10423 10422 10421 10420
10437 10437 10437 10436 10436 10436 10435 10434 10434 10434 10434 10434 10434 10434 10434 10433 10433 10432 10432 10433 10434 10435 10435 10436 10436 10437 10437 10437 10438 10439 10439 10439 10438 10437 10437 10437 10436 10436 10435 10435 10435 10435 10435 10435 10435 10435 10435 10435 10435 10434 10434 10434 10434 10433 10433 10432 10432 10432 10432 10432 10432 10432 10431 10430 10430 10429 10429 10428 10427 10426 10425 10425 10424 10424 10423 10422 10422 10421 10420 10420 10419 10419 10417 10417 10415 10415
10430 10430 10430 10430 10430 10430 10429 10429 10428 10428 10427 10427 10427 10426 10426 10426 10426 10427 10426 10426 10427 10428 10429 10429 10430 10430 10430 10430 10431 10432 10432 10432 10431 10431 10430 10430 10430 10430 10430 10429 10429 10429 10429 10429 10429 10429 10429 10429 10429 10429 10428 10428 10427 10427 10427 10427 10427 10427 10427 10427 10426 10426 10425 10425 10424 10424 10423 10422 10422 10421 10420 10420 10419 10418 10417 10417 10416 10415 10415 10414 10414 10413 10412 10411 10410 10409
10423 10423 10424 10424 10424 10424 10423 10422 10422 10421 10421 10420 10420 10419 10419 10419 10420 10420 10420 10420 10420 10421 10422 10422 10423 10423 10424 10424 10424 10425 10425 10425 10425 10424 10424 10424 10424 10424 10424 10424 10423 10423 10423 10423 10422 10422 10422 10422 10422 10422 10422 10422 10422 10422 10422 10422 10422 10422 10422 10421 10420 10420 10419 10419 10419 10418 10417 10417 10416 10415 10415 10414 10414 10412 10412 10411 10410 10410 10409 10409 10408 10407 10407 10406 10405 10404
10416 10417 10417 10417 10417 10417 10417 10417 10415 10414 10414 10414 10413 10413 10412 10413 10413 10414 10413 10413 10414 10414 10416 10416 10416 10416 10417 10417 10417 10418 10419 10419 10418 10418 10417 10417 10417 10417 10417 10417 10417 10416 10417 10417 10416 10416 10416 10417 10416 10416 10415 10415 10415 10415 10415 10416 10416 10416 10416 10415 10415 10414 10414 10413 10412 10412 10411 10411 10410 10410 10409 10409 10408 10407 10407 10405 10405 10404 10404 10403 10402 10402 10401 10400 10400 10399
10409 10409 10409 10409 10410 10410 10410 10410 10409 10408 10407 10407 10406 10406 10406 10406 10406 10407 10407 10407 10407 10408 10409 10410 10410 10410 10410 10410 10410 10412 10412 10412 10412 10411 10410 10410 10410 10411 10412 10411 10410 10410 10410 10410 10410 10409 10410 10410 10410 10410 10409 10409 10409 10410 10410 10410 10410 10410 10410 10410 10409 10409 10408 10407 10407 10406 10405 10405 10405 10404 10404 10404 10403 10402 10401 10400 10400 10399 10398 10397 10397 10396 10395 10395 10395 10394
10400 10402 10402 10402 10402 10403 10403 10403 10402 10401 10400 10399 10399 10399 10399 10399 10399 10400 10400 10400 10400 10401 10402 10402 10402 10402 10402 10402 10403 10405 10405 10405 10405 10405 10405 10403 10403 10404 10405 10405 10404 10402 10403 10404 10403 10403 10404 10404 10404 10404 10404 10403 10404 10404 10404 10404 10404 10405 10404 10404 10404 10403 10402 10402 10401 10400 10400 10400 10399 10399 10399 10398 10397 10397 10396 10395 10395 10394 10393 10392 10391 10391 10390 10390 10389 10389
10392 10393 10393 10394 10394 10394 10394 10395 10395 10394 10393 10392 10392 10392 10392 10392 10392 10392 10394 10394 10394 10394 10394 10395 10395 10395 10394 10394 10394 10396 10399 10399 10399 10399 10399 10397 10395 10396 10399 10399 10397 10395 10395 10396 10397 10397 10397 10397 10397 10397 10397 10397 10397 10398 10398 10398 10399 10399 10399 10399 10398 10397 10397 10396 10395 10395 10394 10394 10394 10394 10393 10392 10392 10392 10391 10390 10389 10389 10388 10387 10386 10385 10385 10385 10384 10384
10384 10384 10384 10384 10385 10385 10386 10386 10386 10385 10385 10385 10384 10384 10384 10384 10385 10385 10386 10386 10387 10387 10387 10387 10387 10388 10387 10386 10385 10387 10391 10393 10392 10392 10392 10390 10389 10389 10391 10392 10390 10389 10389 10389 10390 10390 10391 10391 10391 10391 10391 10391 10392 10392 10392 10392 10392 10393 10393 10392 10392 10392 10391 10390 10390 10389 10389 10389 10389 10388 10387 10387 10387 10386 10385 10385 10384 10384 10382 10382 10381 10380 10380 10379 10379 10378
10374 10375 10376 10375 10375 10376 10377 10377 10377 10377 10377 10376 10375 10376 10377 10377 10377 10377 10378 10378 10379 10379 10379 10380 10380 10380 10380 10379 10378 10379 10383 10385 10385 10384 10385 10384 10382 10382 10384 10384 10384 10382 10382 10382 10383 10384 10384 10385 10385 10385 10385 10385 10385 10386 10386 10387 10387 10387 10387 10387 10386 10385 10385 10384 10384 10384 10383 10383 10383 10382 10382 10382 10381 10380 10380 10379 10379 10378 10377 10377 10376 10375 10375 10374 10374 10372
10366 10367 10367 10367 10367 10367 10368 10368 10369 10369 10368 10367 10367 10369 10369 10369 10369 10369 10369 10370 10370 10372 10372 10373 10373 10373 10372 10372 10372 10372 10374 10377 10377 10377 10377 10377 10376 10376 10377 10377 10377 10375 10375 10375 10376 10377 10378 10378 10379 10379 10379 10379 10380 10380 10380 10380 10381 10381 10381 10380 10380 10380 10379 10379 10378 10378 10377 10377 10377 10377 10377 10376 10375 10375 10374 10374 10373 10372 10372 10371 10370 10370 10369 10369 10368 10367
10357 10358 10358 10359 10359 10359 10359 10359 10360 10361 10360 10360 10360 10360 10360 10361 10361 10360 10360 10361 10363 10364 10365 10366 10366 10366 10366 10366 10365 10365 10366 10369 10369 10369 10369 10370 10370 10369 10369 10370 10370 10369 10368 10368 10369 10370 10371 10372 10372 10372 10373 10374 10374 10374 10375 10375 10375 10375 10375 10375 10374 10374 10374 10373 10372 10372 10372 10372 10371 10371 10371 10370 10370 10369 10369 10369 10368 10367 10367 10366 10365 10365 10364 10364 10363 10362
10349 10349 10350 10351 10351 10350 10350 10350 10352 10352 10352 10352 10353 10353 10352 10352 10352 10352 10351 10353 10354 10356 10357 10358 10359 10359 10360 10360 10359 10357 10359 10360 10360 10361 10362 10363 10362 10361 10362 10364 10364 10362 10361 10361 10362 10363 10364 10365 10365 10366 10367 10367 10368 10369 10369 10369 10369 10369 10369 10369 10369 10368 10367 10367 10367 10367 10366 10366 10365 10365 10365 10365 10364 10364 10364 10363 10362 10362 10361 10360 10360 10359 10359 10359 10359 10358
10340 10340 10341 10342 10342 10342 10342 10342 10343 10344 10344 10345 10345 10345 10345 10344 10344 10343 10343 10344 10346 10347 10349 10350 10351 10352 10353 10352 10351 10350 10350 10352 10352 10354 10355 10355 10354 10354 10355 10357 10357 10355 10354 10354 10355 10357 10357 10358 10359 10360 10360 10361 10362 10362 10363 10363 10364 10364 10364 10363 10363 10362 10362 10361 10361 10361 10360 10360 10360 10360 10360 10359 10359 10359 10358 10357 10357 10357 10356 10355 10355 10355 10354 10354 10354 10354
10330 10331 10332 10333 10333 10334 10334 10334 10334 10335 10336 10337 10337 10337 10337 10336 10335 10334 10335 10337 10338 10340 10340 10342 10344 10344 10344 10344 10344 10344 10342 10343 10345 10346 10347 10347 10346 10346 10348 10349 10350 10349 10347 10347 10349 10350 10350 10351 10352 10354 10355 10355 10355 10356 10357 10357 10357 10357 10357 10357 10357 10357 10356 10355 10355 10355 10355 10355 10355 10355 10354 10354 10354 10354 10353 10352 10352 10351 10350 10350 10350 10350 10349 10349 10349 10349
10320 10321 10322 10323 10324 10325 10325 10325 10326 10326 10327 10328 10329 10329 10328 10327 10327 10327 10327 10329 10330 10332 10333 10334 10335 10335 10335 10336 10337 10335 10334 10335 10337 10339 10339 10339 10339 10339 10340 10341 10342 10342 10340 10340 10342 10343 10344 10344 10345 10347 10349 10349 10350 10350 10350 10351 10352 10352 10352 10352 10351 10351 10350 10350 10350 10350 10350 10350 10350 10349 10349 10349 10349 10348 10348 10347 10347 10346 10345 10345 10345 10345 10344 10344 10345 10345
10309 10310 10312 10313 10314 10315 10315 10316 10317 10317 10317 10319 10319 10319 10319 10319 10319 10319 10319 10320 10321 10323 10325 10325 10325 10326 10327 10329 10329 10327 10325 10326 10328 10330 10330 10331 10331 10331 10331 10333 10334 10335 10334 10333 10334 10336 10337 10337 10339 10340 10342 10342 10344 10344 10345 10345 10345 10345 10346 10345 10345 10345 10345 10344 10344 10344 10344 10344 10344 10344 10344 10344 10344 10343 10343 10342 10342 10341 10341 10340 10340 10340 10339 10339 10340 10340
10297 10299 10300 10302 10303 10304 10305 10306 10307 10307 10308 10309 10309 10310 10310 10311 10312 10311 10310 10310 10312 10315 10317 10317 10317 10317 10319 10320 10320 10318 10317 10318 10319 10320 10322 10324 10324 10323 10322 10324 10326 10327 10326 10326 10327 10329 10330 10331 10332 10334 10335 10336 10337 10338 10339 10339 10339 10340 10340 10340 10339 10339 10339 10339 10339 10339 10339 10339 10339 10339 10339 10339 10339 10338 10337 10337 10337 10337 10336 10335 10335 10335 10334 10334 10335 10335
10284 10287 10289 10290 10291 10293 10294 10295 10296 10297 10298 10299 10299 10300 10301 10302 10303 10302 10300 10301 10304 10306 10307 10306 10307 10310 10311 10311 10310 10310 10310 10310 10310 10310 10313 10315 10316 10315 10314 10315 10318 10319 10319 10319 10320 10321 10324 10324 10325 10327 10328 10329 10330 10332 10332 10332 10333 10334 10334 10334 10334 10333 10333 10333 10333 10333 10333 10334 10334 10334 10334 10334 10333 10333 10332 10332 10332 10332 10331 10330 10330 10330 10329 10329 10330 10330
10272 10274 10276 10278 10279 10280 10282 10284 10285 10286 10287 10287 10289 10290 10291 10292 10293 10293 10292 10293 10295 10297 10296 10295 10298 10301 10303 10302 10302 10302 10301 10300 10300 10301 10304 10307 10307 10305 10305 10308 10310 10310 10311 10312 10314 10314 10315 10317 10319 10320 10322 10322 10324 10325 10325 10326 10327 10327 10327 10327 10327 10327 10327 10327 10327 10327 10327 10328 10328 10328 10328 10328 10328 10327 10327 10327 10327 10327 10326 10326 10325 10325 10324 10325 10325 10325
10260 10262 10264 10265 10267 10269 10270 10272 10273 10274 10275 10277 10278 10279 10280 10282 10283 10284 10284 10286 10287 10286 10285 10285 10288 10291 10294 10294 10294 10294 10292 10290 10290 10292 10295 10298 10297 10296 10297 10300 10301 10302 10304 10306 10307 10307 10307 10309 10312 10314 10315 10315 10317 10318 10319 10320 10320 10320 10320 10320 10320 10320 10321 10321 10321 10322 10322 10322 10322 10322 10322 10322 10322 10322 10322 10322 10322 10322 10321 10321 10320 10320 10320 10320 10320 10320
10249 10250 10251 10252 10254 10255 10258 10260 10261 10262 10264 10265 10267 10267 10269 10270 10272 10274 10275 10277 10277 10276 10275 10276 10278 10281 10284 10285 10286 10285 10283 10281 10281 10283 10285 10288 10287 10287 10289 10292 10293 10293 10295 10299 10300 10300 10300 10301 10304 10306 10308 10309 10310 10311 10312 10313 10314 10314 10314 10314 10314 10314 10315 10315 10315 10316 10316 10317 10317 10317 10317 10317 10317 10317 10317 10317 10317 10317 10317 10316 10315 10315 10315 10315 10315 10315
10237 10239 10239 10240 10241 10243 10245 10247 10248 10250 10251 10253 10255 10256 10257 10259 10261 10263 10265 10266 10266 10266 10266 10267 10268 10270 10273 10275 10277 10277 10275 10274 10273 10273 10275 10277 10278 10279 10281 10284 10285 10285 10287 10290 10293 10294 10294 10294 10295 10298 10300 10302 10304 10304 10305 10307 10307 10307 10307 10307 10307 10307 10308 10309 10310 10310 10310 10310 10311 10311 10311 10312 10312 10312 10312 10312 10312 10312 10312 10311 10311 10310 10310 10310 10310 10310
10227 10227 10227 10228 10229 10230 10232 10234 10235 10237 10239 10241 10243 10244 10245 10247 10249 10251 10253 10254 10255 10256 10257 10257 10258 10260 10263 10265 10267 10268 10268 10267 10265 10264 10264 10267 10269 10270 10272 10275 10277 10277 10279 10282 10284 10286 10288 10288 10289 10290 10293 10294 10296 10297 10299 10300 10300 10300 10301 10301 10301 10301 10302 10303 10304 10304 10304 10305 10305 10305 10305 10306 10306 10306 10306 10306 10307 10307 10307 10306 10306 10306 10306 10306 10306 10306
10215 10216 10216 10217 10217 10219 10220 10221 10222 10224 10226 10229 10230 10232 10234 10235 10237 10239 10240 10242 10244 10245 10246 10247 10248 10250 10252 10255 10257 10259 10259 10258 10256 10255 10255 10257 10259 10260 10263 10266 10268 10269 10270 10273 10275 10278 10280 10281 10282 10283 10285 10287 10289 10290 10292 10293 10294 10294 10294 10295 10294 10295 10295 10297 10297 10298 10299 10299 10299 10300 10300 10300 10300 10300 10301 10301 10301 10301 10301 10301 10301 10301 10301 10302 10302 10302
10205 10205 10205 10206 10207 10207 10208 10209 10210 10211 10213 10215 10217 10220 10221 10223 10224 10226 10228 10230 10232 10234 10235 10236 10238 10240 10242 10245 10247 10249 10249 10249 10248 10247 10247 10248 10249 10251 10254 10257 10259 10261 10263 10265 10267 10269 10272 10273 10274 10276 10277 10279 10281 10283 10285 10287 10287 10288 10288 10288 10288 10289 10289 10290 10291 10292 10292 10293 10294 10294 10294 10295 10295 10295 10295 10295 10296 10296 10296 10296 10296 10296 10296 10297 10297 10297
10194 10195 10195 10195 10195 10196 10197 10197 10197 10199 10200 10202 10204 10206 10209 10210 10212 10214 10215 10217 10220 10222 10224 10225 10227 10229 10232 10234 10237 10239 10239 10239 10239 10239 10239 10239 10240 10242 10245 10248 10250 10252 10255 10257 10259 10261 10264 10265 10267 10268 10270 10272 10274 10275 10277 10279 10281 10282 10281 10281 10282 10282 10283 10284 10285 10286 10287 10287 10288 10288 10289 10289 10290 10290 10290 10290 10290 10290 10291 10291 10291 10291 10292 10292 10292 10293
10184 10184 10184 10184 10184 10185 10185 10185 10185 10185 10187 10189 10190 10192 10195 10197 10199 10201 10202 10205 10208 10210 10213 10215 10217 10219 10221 10224 10226 10228 10229 10230 10230 10231 10231 10230 10231 10234 10237 10238 10240 10244 10247 10249 10250 10252 10255 10257 10259 10260 10262 10264 10266 10267 10269 10272 10274 10275 10274 10274 10275 10276 10277 10278 10279 10280 10281 10281 10282 10282 10283 10284 10284 10284 10284 10285 10285 10285 10285 10285 10286 10286 10287 10287 10287 10288
10173 10174 10174 10173 10173 10173 10173 10173 10172 10173 10174 10175 10177 10179 10180 10184 10186 10188 10190 10192 10195 10199 10201 10204 10205 10207 10210 10212 10215 10217 10219 10221 10222 10222 10222 10222 10222 10225 10227 10229 10231 10234 10237 10240 10242 10244 10247 10250 10251 10252 10254 10256 10258 10260 10262 10264 10266 10267 10267 10267 10269 10270 10271 10272 10273 10274 10275 10275 10276 10277 10277 10278 10279 10279 10279 10279 10280 10280 10280 10280 10280 10281 10282 10282 10282 10283
10161 10162 10162 10162 10162 10162 10162 10161 10160 10160 10162 10163 10164 10165 10167 10170 10172 10175 10178 10180 10183 10186 10189 10192 10194 10197 10199 10201 10204 10206 10209 10210 10212 10213 10213 10213 10214 10215 10217 10219 10222 10224 10227 10230 10234 10236 10239 10241 10243 10245 10247 10249 10250 10252 10254 10257 10259 10259 10260 10261 10263 10264 10264 10265 10267 10268 10269 10269 10270 10271 10271 10272 10273 10273 10274 10274 10274 10275 10275 10275 10275 10276 10277 10277 10277 10278
10149 10150 10151 10150 10150 10150 10150 10149 10149 10149 10150 10151 10152 10154 10155 10157 10160 10162 10165 10168 10171 10174 10177 10180 10184 10186 10188 10190 10192 10195 10197 10199 10202 10204 10204 10204 10205 10206 10208 10210 10212 10214 10217 10221 10224 10227 10230 10233 10235 10237 10239 10241 10242 10244 10246 10249 10250 10252 10254 10255 10256 10256 10257 10259 10261 10262 10262 10264 10264 10265 10265 10266 10267 10267 10267 10268 10269 10269 10270 10270 10270 10271 10272 10272 10272 10273
10137 10139 10139 10139 10139 10139 10138 10138 10138 10138 10139 10140 10141 10142 10144 10145 10148 10150 10153 10155 10159 10162 10165 10169 10172 10174 10177 10179 10181 10183 10186 10189 10191 10193 10194 10195 10195 10197 10199 10200 10203 10205 10209 10212 10215 10218 10221 10225 10227 10229 10231 10233 10235 10237 10239 10240 10242 10245 10247 10249 10249 10249 10250 10253 10254 10255 10256 10257 10258 10259 10260 10260 10261 10261 10262 10262 10263 10264 10265 10265 10265 10265 10266 10267 10268 10268
10125 10127 10127 10127 10127 10127 10127 10127 10127 10127 10128 10129 10130 10131 10132 10134 10137 10139 10141 10144 10147 10150 10154 10157 10160 10163 10165 10167 10170 10172 10175 10178 10180 10182 10184 10185 10186 10187 10189 10191 10194 10196 10199 10203 10206 10209 10212 10216 10219 10221 10223 10225 10227 10230 10231 10233 10235 10238 10240 10241 10242 10244 10245 10247 10247 10249 10250 10251 10252 10253 10254 10254 10255 10255 10256 10257 10258 10259 10259 10260 10260 10261 10262 10262 10263 10264
10114 10115 10115 10116 10116 10116 10116 10116 10116 10117 10117 10119 10119 10120 10122 10124 10125 10128 10130 10132 10135 10138 10142 10145 10149 10152 10154 10157 10159 10162 10164 10167 10170 10172 10174 10175 10177 10178 10180 10182 10184 10187 10190 10194 10197 10200 10203 10207 10211 10213 10215 10217 10220 10222 10223 10225 10227 10230 10232 10234 10236 10238 10239 10239 10240 10242 10244 10245 10245 10247 10248 10249 10249 10250 10250 10252 10252 10253 10254 10255 10255 10256 10257 10257 10258 10259
10102 10104 10104 10105 10105 10106 10106 10105 10105 10106 10107 10109 10109 10110 10111 10113 10115 10117 10119 10121 10124 10127 10130 10134 10138 10141 10144 10146 10149 10151 10154 10157 10160 10162 10164 10165 10167 10169 10170 10173 10175 10178 10181 10185 10188 10191 10194 10199 10202 10204 10207 10210 10212 10214 10215 10217 10220 10222 10225 10227 10230 10232 10232 10232 10233 10235 10237 10239 10239 10240 10242 10242 10243 10244 10245 10245 10247 10247 10249 10249 10250 10251 10252 10253 10253 10254
10091 10093 10094 10095 10095 10095 10095 10095 10095 10096 10097 10098 10099 10100 10101 10103 10105 10107 10109 10111 10113 10116 10120 10124 10128 10131 10134 10136 10139 10142 10145 10147 10150 10152 10154 10155 10157 10160 10162 10164 10166 10169 10172 10175 10179 10182 10186 10190 10193 10195 10199 10202 10205 10207 10208 10210 10212 10215 10218 10220 10223 10224 10225 10226 10227 10229 10231 10232 10233 10234 10235 10237 10237 10239 10239 10240 10240 10242 10243 10244 10245 10246 10247 10248 10248 10249
10081 10083 10084 10085 10085 10085 10085 10085 10086 10087 10088 10089 10089 10090 10092 10094 10095 10097 10099 10101 10104 10106 10109 10114 10118 10121 10124 10127 10130 10134 10136 10138 10139 10142 10144 10145 10148 10150 10152 10154 10157 10160 10163 10167 10170 10174 10178 10181 10184 10187 10191 10195 10197 10198 10200 10202 10205 10208 10210 10213 10215 10217 10219 10220 10221 10222 10224 10225 10227 10228 10229 10230 10232 10232 10233 10234 10235 10236 10238 10239 10240 10241 10242 10242 10243 10243
10072 10073 10074 10075 10075 10075 10076 10077 10077 10078 10078 10079 10080 10081 10083 10084 10086 10088 10090 10092 10095 10097 10100 10105 10109 10112 10115 10119 10122 10125 10126 10128 10130 10132 10134 10136 10138 10140 10144 10145 10149 10152 10155 10159 10162 10165 10169 10173 10177 10180 10184 10186 10189 10190 10192 10195 10198 10200 10203 10205 10209 10210 10212 10212 10214 10215 10218 10220 10221 10222 10223 10225 10225 10226 10227 10228 10230 10231 10232 10234 10235 10236 10237 10237 10238 10238
10063 10064 10065 10065 10066 10067 10067 10067 10068 10069 10070 10070 10072 10073 10075 10076 10078 10080 10082 10084 10087 10090 10094 10097 10100 10104 10107 10110 10114 10115 10117 10119 10120 10123 10125 10127 10129 10132 10134 10137 10140 10144 10147 10151 10154 10158 10161 10165 10169 10172 10175 10178 10180 10182 10184 10187 10190 10193 10195 10199 10201 10203 10204 10205 10207 10209 10212 10214 10215 10216 10217 10218 10219 10220 10221 10223 10225 10226 10227 10229 10230 10231 10232 10232 10232 10233
10054 10055 10055 10057 10057 10057 10058 10059 10060 10060 10061 10062 10064 10065 10067 10069 10070 10072 10074 10077 10080 10084 10087 10090 10093 10096 10099 10102 10104 10107 10109 10110 10112 10114 10117 10119 10121 10124 10127 10129 10133 10136 10140 10143 10147 10150 10154 10157 10160 10164 10167 10170 10173 10175 10177 10180 10182 10185 10189 10192 10194 10195 10197 10199 10200 10204 10206 10207 10209 10209 10210 10212 10213 10214 10217 10218 10219 10220 10222 10224 10225 10225 10226 10227 10227 10228
10046 10047 10047 10048 10048 10049 10049 10050 10051 10052 10054 10055 10056 10058 10059 10061 10063 10065 10067 10069 10072 10077 10081 10084 10087 10089 10091 10094 10095 10098 10100 10102 10104 10106 10109 10110 10114 10116 10119 10122 10125 10129 10132 10135 10139 10142 10146 10149 10152 10155 10159 10162 10165 10167 10170 10172 10175 10179 10182 10184 10186 10188 10190 10192 10194 10197 10199 10201 10202 10203 10204 10206 10208 10210 10212 10213 10214 10215 10217 10219 10219 10220 10221 10222 10222 10223
10038 10039 10039 10039 10040 10040 10041 10042 10044 10045 10046 10047 10049 10051 10052 10054 10056 10057 10060 10062 10065 10070 10074 10078 10080 10082 10084 10085 10088 10090 10092 10094 10096 10099 10100 10103 10106 10109 10112 10115 10118 10122 10125 10128 10132 10135 10139 10142 10145 10148 10151 10154 10157 10160 10163 10165 10168 10171 10174 10176 10179 10181 10184 10185 10188 10190 10194 10195 10195 10197 10199 10200 10202 10205 10207 10208 10209 10210 10212 10213 10214 10215 10216 10217 10217 10218